AIB2E LFBO-LFBO

Flight info

Callsign AIB2E
Flight time 0h 5m
Altitude 3000
Route LOCAL
Aircraft A35K/H-SDE1E2E3FGHIJ2J3J4J5M1RWXY/LB1D1

Departure

Time 2026-04-30 11:30
Airport Toulouse-Blagnac Airport (LFBO)

Arrival

Time 2026-04-30 11:36
Airport Toulouse-Blagnac Airport (LFBO)
Time Latitude Longitude Altitude Speed Heading
2026-04-30 11:26 43.63162 1.35391 507 ft 0 kts 322°
2026-04-30 11:26 43.63173 1.35380 507 ft 8 kts 325°
2026-04-30 11:27 43.63252 1.35300 506 ft 16 kts 323°
2026-04-30 11:27 43.63350 1.35198 506 ft 20 kts 324°
2026-04-30 11:27 43.63477 1.35075 505 ft 23 kts 323°
2026-04-30 11:27 43.63602 1.34945 505 ft 11 kts 344°
2026-04-30 11:28 43.63757 1.34962 505 ft 16 kts 324°
2026-04-30 11:28 43.63856 1.34858 505 ft 20 kts 323°
2026-04-30 11:28 43.63948 1.34761 504 ft 23 kts 323°
2026-04-30 11:29 43.64082 1.34624 504 ft 26 kts 322°
2026-04-30 11:29 43.64220 1.34482 503 ft 18 kts 323°
2026-04-30 11:29 43.64361 1.34636 502 ft 17 kts 117°
2026-04-30 11:30 43.63980 1.35047 506 ft 93 kts 142°
2026-04-30 11:30 43.63248 1.35801 585 ft 161 kts 143°
2026-04-30 11:30 43.62363 1.36728 1583 ft 159 kts 141°
2026-04-30 11:31 43.61506 1.37644 2336 ft 152 kts 140°
2026-04-30 11:31 43.60489 1.38198 2815 ft 174 kts 174°
2026-04-30 11:31 43.59222 1.37590 2861 ft 220 kts 215°
2026-04-30 11:31 43.58458 1.36326 2961 ft 242 kts 235°
2026-04-30 11:32 43.57601 1.34361 2941 ft 232 kts 237°
2026-04-30 11:32 43.57060 1.32354 2949 ft 220 kts 262°
2026-04-30 11:32 43.57282 1.30278 3002 ft 221 kts 294°
2026-04-30 11:33 43.59495 1.27432 2874 ft 222 kts 327°
2026-04-30 11:33 43.60758 1.26223 2905 ft 221 kts 325°
2026-04-30 11:33 43.62067 1.25186 2851 ft 210 kts 348°
2026-04-30 11:33 43.63394 1.25449 2722 ft 188 kts 34°
2026-04-30 11:34 43.64278 1.26668 2506 ft 178 kts 57°
2026-04-30 11:34 43.64989 1.28042 2330 ft 173 kts 59°
2026-04-30 11:34 43.65653 1.29402 2075 ft 170 kts 59°
2026-04-30 11:34 43.66231 1.30815 1774 ft 162 kts 73°
2026-04-30 11:35 43.66191 1.32277 1658 ft 157 kts 110°
2026-04-30 11:35 43.65501 1.33475 1224 ft 160 kts 143°
2026-04-30 11:35 43.64621 1.34368 632 ft 157 kts 141°
2026-04-30 11:35 43.63806 1.35225 505 ft 127 kts 142°
2026-04-30 11:36 43.63313 1.35733 507 ft 35 kts 142°
2026-04-30 11:36 43.63170 1.35887 507 ft 26 kts 147°